Weather History for Trinity Center, CA

Change the Weather History Date:

Wednesday, March 5, 2014

  Actual Average (KMHS) Record (KMHS)
Temperature  
Mean Temperature 50 °F 41 °F  
Max Temperature 53 °F 52 °F 68 °F (1972)
Min Temperature 46 °F 29 °F 10 °F (1918)
Degree Days  
Heating Degree Days 16 24  
Month to date heating degree days 123  
Since 1 July heating degree days 4098  
Cooling Degree Days 0 0  
Month to date cooling degree days 0  
Year to date cooling degree days 0  
Moisture  
Dew Point 47 °F    
Average Humidity 95    
Maximum Humidity 100    
Minimum Humidity 71    
Precipitation  
Precipitation 1.74 in 0.24 in 3.58 in (1987)
Month to date precipitation 1.27  
Year to date precipitation 15.56  
Sea Level Pressure  
Sea Level Pressure 29.99 in    
Wind  
Wind Speed 2 mph (SSW)    
Max Wind Speed 16 mph    
Max Gust Speed 25 mph    
Visibility 5 miles    
Events      
T = Trace of Precipitation, MM = Missing Value Source: NWS Daily Summary

Daily Weather History Graph

Daily Weather History Graph

Search for Another Location

Airport:

Trip Planner

Search our weather history database for the weather conditions in past years. The results will help you decide how hot, cold, wet, or windy it might be!

Date:

Astronomy

Mar. 05, 2014 Rise Set
Actual Time 6:38 AM PST 6:06 PM PST
Civil Twilight 6:11 AM PST 6:34 PM PST
Nautical Twilight 5:39 AM PST 7:05 PM PST
Astronomical Twilight 5:07 AM PST 7:37 PM PST
Moon 9:05 AM PST (3/5) 11:23 PM PST (3/5)
Length of Visible Light 12h 22m
Length of Day
11h 28m
Waxing Crescent, 24% of the Moon is Illuminated
Mar 5
Waxing Crescent
Mar 8
First Quarter
Mar 16
Full
Mar 23
Last Quarter
Mar 30
New

Hourly Weather History & Observations

Time (PST) Temp. Windchill Dew Point Humidity Pressure Visibility Wind Dir Wind Speed Gust Speed Precip Events Conditions
12:15 AM 46.4 °F - 46.4 °F 100% 30.08 in 8.0 mi Calm Calm - N/A   Overcast
12:35 AM 46.4 °F 45.2 °F 46.4 °F 100% 30.09 in 7.0 mi West 3.5 mph - 0.01 in   Overcast
12:55 AM 46.4 °F - 46.4 °F 100% 30.08 in 5.0 mi Calm Calm - 0.03 in   Overcast
1:15 AM 46.4 °F 45.2 °F 46.4 °F 100% 30.08 in 7.0 mi NW 3.5 mph - N/A   Overcast
1:35 AM 46.4 °F 45.2 °F 46.4 °F 100% 30.08 in 8.0 mi NW 3.5 mph - 0.01 in   Overcast
1:55 AM 46.4 °F - 46.4 °F 100% 30.08 in 7.0 mi Calm Calm - 0.02 in   Overcast
2:15 AM 46.4 °F - 46.4 °F 100% 30.08 in 8.0 mi Calm Calm - N/A   Overcast
2:35 AM 46.4 °F - 46.4 °F 100% 30.08 in 7.0 mi Calm Calm - 0.01 in   Overcast
2:55 AM 46.4 °F - 46.4 °F 100% 30.07 in 5.0 mi Calm Calm - 0.01 in   Overcast
3:15 AM 46.4 °F - 46.4 °F 100% 30.05 in 7.0 mi Calm Calm - N/A   Overcast
3:35 AM 46.4 °F - 46.4 °F 100% 30.05 in 10.0 mi Calm Calm - N/A   Overcast
3:55 AM 46.4 °F - 46.4 °F 100% 30.05 in 10.0 mi Calm Calm - N/A   Overcast
4:15 AM 46.4 °F - 46.4 °F 100% 30.05 in 10.0 mi Calm Calm - N/A   Overcast
4:35 AM 46.4 °F - 46.4 °F 100% 30.04 in 7.0 mi Calm Calm - N/A   Overcast
4:55 AM 46.4 °F - 46.4 °F 100% 30.05 in 10.0 mi Calm Calm - N/A   Overcast
5:15 AM 46.4 °F - 46.4 °F 100% 30.05 in 10.0 mi Calm Calm - N/A   Overcast
5:35 AM 46.4 °F - 46.4 °F 100% 30.05 in 10.0 mi Calm Calm - N/A   Overcast
5:55 AM 46.4 °F - 46.4 °F 100% 30.05 in 7.0 mi Calm Calm - N/A   Overcast
6:15 AM 46.4 °F - 46.4 °F 100% 30.05 in 5.0 mi Calm Calm - N/A   Overcast
6:30 AM 46.4 °F - 46.4 °F 100% 30.05 in 3.0 mi Calm Calm - N/A   Overcast
6:55 AM 46.4 °F - 46.4 °F 100% 30.05 in 5.0 mi Calm Calm - 0.03 in   Overcast
7:15 AM 46.4 °F - 46.4 °F 100% 30.05 in 7.0 mi Calm Calm - N/A   Overcast
7:35 AM 46.4 °F - 46.4 °F 100% 30.05 in 3.0 mi Calm Calm - N/A   Overcast
7:55 AM 46.4 °F - 46.4 °F 100% 30.06 in 4.0 mi Calm Calm - 0.03 in   Overcast
8:15 AM 46.4 °F - 46.4 °F 100% 30.06 in 3.0 mi Calm Calm - 0.01 in   Overcast
8:35 AM 46.4 °F - 46.4 °F 100% 30.07 in 3.0 mi Calm Calm - 0.07 in   Overcast
8:55 AM 48.2 °F - 46.4 °F 93% 30.07 in 3.0 mi Calm Calm - 0.09 in   Overcast
9:15 AM 48.2 °F - 46.4 °F 93% 30.07 in 10.0 mi Calm Calm - N/A   Overcast
9:35 AM 48.2 °F - 46.4 °F 93% 30.08 in 3.0 mi Calm Calm - 0.03 in   Mostly Cloudy
9:55 AM 48.2 °F - 46.4 °F 93% 30.08 in 1.8 mi Calm Calm - 0.05 in   Mostly Cloudy
10:15 AM 48.2 °F - 46.4 °F 93% 30.08 in 2.0 mi Calm Calm - 0.03 in   Mostly Cloudy
10:35 AM 48.2 °F - 48.2 °F 100% 30.07 in 2.0 mi Calm Calm - 0.07 in   Mostly Cloudy
10:55 AM 48.2 °F - 46.4 °F 93% 30.07 in 2.0 mi Calm Calm - 0.10 in   Overcast
11:15 AM 48.2 °F - 48.2 °F 100% 30.05 in 1.5 mi Calm Calm - 0.01 in   Mostly Cloudy
11:35 AM 48.2 °F - 48.2 °F 100% 30.07 in 1.0 mi West 3.5 mph - 0.03 in   Overcast
11:55 AM 48.2 °F - 48.2 °F 100% 30.05 in 2.5 mi ENE 3.5 mph - 0.11 in   Mostly Cloudy
12:15 PM 48.2 °F - 48.2 °F 100% 30.04 in 1.0 mi Calm Calm - 0.01 in   Overcast
12:35 PM 48.2 °F - 48.2 °F 100% 30.02 in 1.2 mi Calm Calm - 0.03 in   Mostly Cloudy
12:55 PM 48.2 °F - 48.2 °F 100% 30.02 in 1.2 mi Calm Calm - 0.10 in   Mostly Cloudy
1:15 PM 48.2 °F - 48.2 °F 100% 29.98 in 2.0 mi NNE 3.5 mph - 0.05 in   Overcast
1:35 PM 48.2 °F - 48.2 °F 100% 29.98 in 2.5 mi WNW 3.5 mph - 0.09 in   Overcast
1:55 PM 50.0 °F - 48.2 °F 94% 29.98 in 2.5 mi Calm Calm - 0.18 in   Mostly Cloudy
2:15 PM 50.0 °F - 48.2 °F 94% 29.95 in 5.0 mi Calm Calm - 0.01 in   Mostly Cloudy
2:35 PM 48.2 °F - 48.2 °F 100% 29.96 in 2.0 mi Calm Calm - 0.05 in   Overcast
2:55 PM 50.0 °F - 48.2 °F 94% 29.96 in 3.0 mi Calm Calm - 0.13 in   Overcast
3:15 PM 50.0 °F - 48.2 °F 94% 29.95 in 2.0 mi Calm Calm - 0.05 in   Overcast
3:35 PM 50.0 °F - 48.2 °F 94% 29.94 in 2.5 mi Calm Calm - 0.07 in   Overcast
3:55 PM 48.2 °F - 48.2 °F 100% 29.91 in 2.0 mi Calm Calm - 0.11 in   Overcast
4:15 PM 48.2 °F - 48.2 °F 100% 29.92 in 2.0 mi West 3.5 mph - 0.09 in   Overcast
4:35 PM 50.0 °F - 48.2 °F 94% 29.91 in 2.5 mi Calm Calm - 0.17 in   Overcast
4:55 PM 50.0 °F - 48.2 °F 94% 29.90 in 2.0 mi Calm Calm - 0.26 in   Overcast
5:15 PM 48.2 °F - 48.2 °F 100% 29.90 in 1.8 mi Calm Calm - 0.04 in   Overcast
5:35 PM 48.2 °F - 48.2 °F 100% 29.88 in 3.0 mi SSE 3.5 mph - 0.08 in   Overcast
5:55 PM 48.2 °F - 48.2 °F 100% 29.89 in 3.0 mi NW 3.5 mph - 0.10 in   Overcast
6:15 PM 50.0 °F - 48.2 °F 94% 29.87 in 2.5 mi Calm Calm - 0.03 in   Overcast
6:35 PM 50.0 °F - 48.2 °F 94% 29.86 in 3.0 mi Calm Calm - 0.10 in   Overcast
6:55 PM 50.0 °F - 48.2 °F 94% 29.86 in 3.0 mi SSW 5.8 mph - 0.19 in   Overcast
7:15 PM 50.0 °F - 48.2 °F 94% 29.86 in 2.5 mi SSW 3.5 mph - 0.06 in   Overcast
7:35 PM 50.0 °F - 48.2 °F 94% 29.86 in 2.5 mi SW 5.8 mph - 0.11 in   Mostly Cloudy
7:55 PM 50.0 °F - 50.0 °F 100% 29.85 in 3.0 mi SE 3.5 mph - 0.17 in   Overcast
8:15 PM 50.0 °F - 50.0 °F 100% 29.85 in 4.0 mi South 10.4 mph 18.4 mph 0.01 in   Mostly Cloudy
8:35 PM 53.6 °F - 50.0 °F 88% 29.87 in 5.0 mi South 3.5 mph - 0.03 in   Overcast
8:55 PM 53.6 °F - 50.0 °F 88% 29.87 in 8.0 mi South 15.0 mph 20.7 mph 0.03 in   Overcast
9:15 PM 53.6 °F - 48.2 °F 82% 29.88 in 10.0 mi South 15.0 mph 25.3 mph N/A   Overcast
9:35 PM 53.6 °F - 46.4 °F 77% 29.88 in 10.0 mi South 16.1 mph 21.9 mph N/A   Mostly Cloudy
9:50 PM 51.8 °F - 44.6 °F 76% 29.88 in 10.0 mi South 16.1 mph 20.7 mph N/A   Partly Cloudy
10:15 PM 50.0 °F - 44.6 °F 82% 29.89 in 10.0 mi South 11.5 mph 18.4 mph N/A   Clear
10:35 PM 50.0 °F - 42.8 °F 76% 29.89 in 10.0 mi South 13.8 mph - N/A   Clear
10:55 PM 50.0 °F - 41.0 °F 71% 29.90 in 10.0 mi South 13.8 mph 18.4 mph N/A   Clear
11:15 PM 50.0 °F - 41.0 °F 71% 29.90 in 10.0 mi South 10.4 mph 18.4 mph N/A   Clear
11:35 PM 50.0 °F - 41.0 °F 71% 29.91 in 10.0 mi Calm Calm - N/A   Clear
11:55 PM 46.4 °F 44.3 °F 42.8 °F 87% 29.91 in 10.0 mi NNW 4.6 mph - N/A   Clear